TimePDT,TemperatureF,Dew PointF,Humidity,Sea Level PressureIn,VisibilityMPH,Wind Direction,Wind SpeedMPH,Gust SpeedMPH,PrecipitationIn,Events,Conditions,WindDirDegrees,DateUTC
12:15 AM,53.6,51.8,94,29.87,10.0,Calm,Calm,-,N/A,,Clear,0,2013-08-28 07:15:00
12:35 AM,53.6,51.8,94,29.87,10.0,Calm,Calm,-,N/A,,Clear,0,2013-08-28 07:35:00
12:55 AM,53.6,51.8,94,29.87,7.0,Calm,Calm,-,N/A,,Clear,0,2013-08-28 07:55:00
1:15 AM,53.6,53.6,100,29.86,7.0,Calm,Calm,-,N/A,,Mostly Cloudy,0,2013-08-28 08:15:00
1:35 AM,53.6,53.6,100,29.85,3.0,Calm,Calm,-,N/A,,Overcast,0,2013-08-28 08:35:00
1:55 AM,53.6,53.6,100,29.85,2.5,Calm,Calm,-,N/A,,Overcast,0,2013-08-28 08:55:00
2:15 AM,53.6,53.6,100,29.85,2.0,Calm,Calm,-,N/A,,Overcast,0,2013-08-28 09:15:00
2:35 AM,53.6,53.6,100,29.85,1.5,Calm,Calm,-,N/A,,Overcast,0,2013-08-28 09:35:00
2:55 AM,53.6,53.6,100,29.85,2.0,Calm,Calm,-,N/A,,Overcast,0,2013-08-28 09:55:00
3:15 AM,53.6,53.6,100,29.85,2.5,Calm,Calm,-,N/A,,Overcast,0,2013-08-28 10:15:00
3:35 AM,53.6,53.6,100,29.85,1.8,Calm,Calm,-,N/A,,Overcast,0,2013-08-28 10:35:00
3:55 AM,53.6,53.6,100,29.84,1.5,Calm,Calm,-,N/A,,Overcast,0,2013-08-28 10:55:00
4:15 AM,53.6,53.6,100,29.84,1.2,Calm,Calm,-,N/A,,Overcast,0,2013-08-28 11:15:00
4:35 AM,53.6,53.6,100,29.84,1.2,Calm,Calm,-,N/A,,Overcast,0,2013-08-28 11:35:00
4:55 AM,53.6,53.6,100,29.84,1.2,Calm,Calm,-,N/A,,Overcast,0,2013-08-28 11:55:00
5:15 AM,53.6,51.8,94,29.85,1.2,Calm,Calm,-,N/A,,Overcast,0,2013-08-28 12:15:00
5:35 AM,53.6,51.8,94,29.85,2.0,Calm,Calm,-,N/A,,Overcast,0,2013-08-28 12:35:00
5:55 AM,53.6,53.6,100,29.85,2.0,Calm,Calm,-,N/A,,Overcast,0,2013-08-28 12:55:00
6:15 AM,53.6,53.6,100,29.85,3.0,Calm,Calm,-,N/A,,Overcast,0,2013-08-28 13:15:00
6:35 AM,53.6,53.6,100,29.86,2.0,Calm,Calm,-,N/A,,Overcast,0,2013-08-28 13:35:00
6:55 AM,53.6,53.6,100,29.87,0.5,Calm,Calm,-,N/A,Fog,Fog,0,2013-08-28 13:55:00
7:15 AM,53.6,51.8,94,29.87,0.5,Calm,Calm,-,N/A,Fog,Fog,0,2013-08-28 14:15:00
7:35 AM,53.6,53.6,100,29.87,1.0,Calm,Calm,-,N/A,,Overcast,0,2013-08-28 14:35:00
7:55 AM,53.6,53.6,100,29.88,3.0,Calm,Calm,-,N/A,,Overcast,0,2013-08-28 14:55:00
8:15 AM,53.6,53.6,100,29.88,2.5,Calm,Calm,-,N/A,,Overcast,0,2013-08-28 15:15:00
8:35 AM,55.4,53.6,94,29.89,5.0,Calm,Calm,-,N/A,,Overcast,0,2013-08-28 15:35:00
8:55 AM,55.4,53.6,94,29.89,5.0,SW,3.5,-,N/A,,Overcast,230,2013-08-28 15:55:00
9:15 AM,59.0,53.6,82,29.89,10.0,Calm,Calm,-,N/A,,Scattered Clouds,0,2013-08-28 16:15:00
9:35 AM,60.8,53.6,77,29.89,10.0,Calm,Calm,-,N/A,,Clear,0,2013-08-28 16:35:00
9:55 AM,64.4,53.6,68,29.89,10.0,Calm,Calm,-,N/A,,Clear,0,2013-08-28 16:55:00
10:15 AM,68.0,53.6,60,29.89,10.0,Calm,Calm,-,N/A,,Clear,0,2013-08-28 17:15:00
10:35 AM,69.8,53.6,56,29.89,10.0,Calm,Calm,-,N/A,,Clear,0,2013-08-28 17:35:00
10:55 AM,73.4,53.6,50,29.89,10.0,Calm,Calm,-,N/A,,Clear,0,2013-08-28 17:55:00
11:15 AM,77.0,53.6,44,29.89,10.0,West,4.6,-,N/A,,Clear,260,2013-08-28 18:15:00
11:35 AM,80.6,51.8,37,29.89,10.0,West,5.8,-,N/A,,Clear,260,2013-08-28 18:35:00
11:55 AM,82.4,51.8,35,29.88,10.0,West,4.6,-,N/A,,Clear,280,2013-08-28 18:55:00
12:15 PM,86.0,51.8,31,29.88,10.0,WNW,5.8,-,N/A,,Clear,290,2013-08-28 19:15:00
12:35 PM,87.8,50.0,27,29.87,10.0,West,5.8,-,N/A,,Clear,280,2013-08-28 19:35:00
12:55 PM,91.4,48.2,23,29.87,10.0,WNW,11.5,-,N/A,,Clear,290,2013-08-28 19:55:00
1:15 PM,93.2,46.4,20,29.86,10.0,WNW,12.7,17.3,N/A,,Clear,290,2013-08-28 20:15:00
1:35 PM,93.2,44.6,19,29.86,10.0,NW,11.5,-,N/A,,Clear,310,2013-08-28 20:35:00
1:55 PM,93.2,44.6,19,29.86,10.0,WNW,15.0,-,N/A,,Clear,290,2013-08-28 20:55:00
2:15 PM,91.4,44.6,20,29.86,10.0,WNW,16.1,-,N/A,,Clear,300,2013-08-28 21:15:00
2:35 PM,89.6,46.4,22,29.86,10.0,WNW,16.1,-,N/A,,Clear,300,2013-08-28 21:35:00
2:55 PM,87.8,46.4,24,29.86,10.0,NW,17.3,23.0,N/A,,Clear,310,2013-08-28 21:55:00
3:15 PM,86.0,48.2,27,29.86,10.0,WNW,16.1,-,N/A,,Clear,290,2013-08-28 22:15:00
3:35 PM,86.0,50.0,29,29.86,10.0,WNW,15.0,-,N/A,,Clear,290,2013-08-28 22:35:00
3:55 PM,86.0,50.0,29,29.86,10.0,West,16.1,-,N/A,,Clear,280,2013-08-28 22:55:00
4:15 PM,84.2,50.0,30,29.86,10.0,West,13.8,-,N/A,,Clear,280,2013-08-28 23:15:00
4:35 PM,82.4,51.8,35,29.87,10.0,West,11.5,-,N/A,,Clear,280,2013-08-28 23:35:00
4:55 PM,80.6,51.8,37,29.86,10.0,West,12.7,-,N/A,,Clear,280,2013-08-28 23:55:00
5:15 PM,80.6,51.8,37,29.87,10.0,West,11.5,-,N/A,,Clear,280,2013-08-29 00:15:00
5:35 PM,78.8,53.6,42,29.87,10.0,West,10.4,-,N/A,,Clear,280,2013-08-29 00:35:00
5:55 PM,77.0,53.6,44,29.87,10.0,West,11.5,-,N/A,,Clear,280,2013-08-29 00:55:00
6:15 PM,73.4,53.6,50,29.88,10.0,West,10.4,-,N/A,,Clear,260,2013-08-29 01:15:00
6:35 PM,71.6,53.6,53,29.88,10.0,WSW,10.4,-,N/A,,Clear,250,2013-08-29 01:35:00
6:55 PM,69.8,53.6,56,29.88,10.0,WSW,10.4,-,N/A,,Clear,250,2013-08-29 01:55:00
7:15 PM,68.0,53.6,60,29.89,10.0,West,9.2,-,N/A,,Clear,270,2013-08-29 02:15:00
7:35 PM,64.4,53.6,68,29.90,10.0,West,8.1,-,N/A,,Clear,260,2013-08-29 02:35:00
7:55 PM,64.4,53.6,68,29.90,10.0,WSW,6.9,-,N/A,,Clear,250,2013-08-29 02:55:00
8:15 PM,62.6,53.6,72,29.91,10.0,WSW,6.9,-,N/A,,Clear,240,2013-08-29 03:15:00
8:35 PM,60.8,53.6,77,29.92,10.0,WSW,6.9,-,N/A,,Clear,250,2013-08-29 03:35:00
8:55 PM,60.8,53.6,77,29.93,10.0,West,5.8,-,N/A,,Clear,260,2013-08-29 03:55:00
9:15 PM,59.0,53.6,82,29.94,10.0,WSW,4.6,-,N/A,,Clear,240,2013-08-29 04:15:00
9:35 PM,59.0,53.6,82,29.94,10.0,West,5.8,-,N/A,,Clear,260,2013-08-29 04:35:00
9:55 PM,59.0,53.6,82,29.95,10.0,SW,4.6,-,N/A,,Clear,230,2013-08-29 04:55:00
10:15 PM,59.0,53.6,82,29.96,10.0,Calm,Calm,-,N/A,,Clear,0,2013-08-29 05:15:00
10:35 PM,57.2,53.6,88,29.96,10.0,WSW,4.6,-,N/A,,Clear,240,2013-08-29 05:35:00
10:55 PM,57.2,53.6,88,29.96,10.0,Calm,Calm,-,N/A,,Clear,0,2013-08-29 05:55:00
11:15 PM,55.4,53.6,94,29.96,10.0,Calm,Calm,-,N/A,,Clear,0,2013-08-29 06:15:00
11:35 PM,55.4,53.6,94,29.95,10.0,Calm,Calm,-,N/A,,Clear,0,2013-08-29 06:35:00
11:55 PM,55.4,53.6,94,29.96,10.0,Calm,Calm,-,N/A,,Clear,0,2013-08-29 06:55:00